カタログに戻る

STARLINK-6278

運用中通信VLEO
NORAD 56412·PAYLOAD·🇺🇸 United States

打ち上げ May 4, 2023 から Cape Canaveral Space Force Station

Loading…

次のパス (今後24時間)

TLE

最新Source: CelesTrak SupGP

元期: Sep 14, 2026, 20:50 UTC

1 56412C 23061AQ  26257.86854167  .00004767  00000+0  17270-3 0  2577
2 56412  43.0028 198.4429 0001531 265.1273 307.2740 15.27569398    19

AllMySatでSTARLINK-6278をリアルタイム追跡

Download on the App Store